TimeCDT,TemperatureF,Dew PointF,Humidity,Sea Level PressureIn,VisibilityMPH,Wind Direction,Wind SpeedMPH,Gust SpeedMPH,PrecipitationIn,Events,Conditions,WindDirDegrees,DateUTC
12:54 AM,52.0,50.0,93,30.12,9.0,NNW,5.8,-,N/A,,Overcast,330,2012-10-07 05:54:00
1:54 AM,52.0,48.9,89,30.12,10.0,North,11.5,-,N/A,,Overcast,350,2012-10-07 06:54:00
2:31 AM,51.8,48.2,88,30.12,10.0,North,11.5,-,N/A,,Overcast,350,2012-10-07 07:31:00
2:54 AM,52.0,46.9,83,30.12,10.0,North,13.8,-,N/A,,Overcast,350,2012-10-07 07:54:00
3:54 AM,52.0,46.9,83,30.12,10.0,North,9.2,-,N/A,,Overcast,360,2012-10-07 08:54:00
4:54 AM,51.1,46.0,83,30.14,10.0,North,8.1,-,N/A,,Overcast,350,2012-10-07 09:54:00
5:54 AM,51.1,45.0,80,30.16,10.0,NNW,11.5,-,N/A,,Overcast,340,2012-10-07 10:54:00
6:54 AM,50.0,45.0,83,30.17,10.0,North,9.2,-,N/A,,Overcast,350,2012-10-07 11:54:00
7:54 AM,51.1,45.0,80,30.19,10.0,NNW,12.7,-,N/A,,Overcast,340,2012-10-07 12:54:00
8:54 AM,51.1,45.0,80,30.21,10.0,North,10.4,-,N/A,,Overcast,350,2012-10-07 13:54:00
9:29 AM,53.6,44.6,72,30.21,10.0,North,15.0,-,N/A,,Overcast,10,2012-10-07 14:29:00
9:54 AM,54.0,44.1,69,30.20,10.0,North,10.4,-,N/A,,Overcast,10,2012-10-07 14:54:00
10:54 AM,55.0,44.1,67,30.20,10.0,North,12.7,-,N/A,,Overcast,10,2012-10-07 15:54:00
11:54 AM,57.0,45.0,64,30.20,10.0,North,16.1,20.7,N/A,,Overcast,360,2012-10-07 16:54:00
12:54 PM,57.9,45.0,62,30.19,10.0,North,9.2,17.3,N/A,,Overcast,10,2012-10-07 17:54:00
1:33 PM,60.8,44.6,55,30.17,10.0,North,11.5,-,N/A,,Mostly Cloudy,10,2012-10-07 18:33:00
1:54 PM,61.0,44.1,54,30.15,10.0,NNE,12.7,-,N/A,,Mostly Cloudy,20,2012-10-07 18:54:00
2:54 PM,61.0,44.1,54,30.14,10.0,North,13.8,19.6,N/A,,Mostly Cloudy,10,2012-10-07 19:54:00
3:54 PM,61.0,43.0,52,30.13,10.0,North,13.8,20.7,N/A,,Partly Cloudy,10,2012-10-07 20:54:00
4:54 PM,61.0,43.0,52,30.12,10.0,North,11.5,-,N/A,,Partly Cloudy,360,2012-10-07 21:54:00
5:54 PM,57.9,43.0,58,30.13,10.0,North,9.2,-,N/A,,Partly Cloudy,360,2012-10-07 22:54:00
6:54 PM,55.0,42.1,62,30.14,10.0,North,8.1,-,N/A,,Clear,10,2012-10-07 23:54:00
7:54 PM,54.0,44.1,69,30.14,10.0,NNE,3.5,-,N/A,,Mostly Cloudy,30,2012-10-08 00:54:00
8:54 PM,54.0,43.0,66,30.17,10.0,North,4.6,-,N/A,,Partly Cloudy,350,2012-10-08 01:54:00
9:54 PM,52.0,44.1,74,30.16,10.0,Calm,Calm,-,N/A,,Clear,0,2012-10-08 02:54:00
10:54 PM,48.9,46.0,90,30.16,10.0,Calm,Calm,-,N/A,,Partly Cloudy,0,2012-10-08 03:54:00
11:54 PM,50.0,44.1,80,30.14,10.0,East,3.5,-,N/A,,Clear,80,2012-10-08 04:54:00